Hourly Data Report for October 24, 2016

All times are specified in Local Standard Time (LST). Add 1 hour to adjust for Daylight Saving Time where and when it is observed.

RANKIN INLET A
NUNAVUT

62°48'38.000" N
92°06'53.000" W
32.30 m
2303405
71083
YRT

Download Data

Hourly Data (October 2016)
Hourly Data Report for October 24, 2016
Temp Definition
°C
Dew Point Temp Definition
°C
Rel Hum Definition
%
Wind Dir Definition
10's deg

Wind Spd Definition
km/h
Visibility Definition
km
Stn Press Definition
kPa
Hmdx Definition


Wind Chill Definition


Weather Definition


TIME
00:00 Legend Double Dagger 0.3 -4.7 69 11 22 9.7 102.75     Snow Showers
01:00 Legend Double Dagger 0.6 -4.6 68 11 18 16.1 102.77     LegendNANA
02:00 Legend Double Dagger 0.7 -4.5 68 10 16 16.1 102.78     LegendNANA
03:00 Legend Double Dagger 0.7 -3.6 73 11 17 16.1 102.82     Cloudy
04:00 Legend Double Dagger 0.8 -4.3 69 11 16 16.1 102.87     LegendNANA
05:00 Legend Double Dagger 0.8 -4.8 66 10 7 16.1 102.91     LegendNANA
06:00 Legend Double Dagger 0.8 -5.5 63 11 14 16.1 102.94     Cloudy
07:00 Legend Double Dagger 0.4 -4.8 68 13 11 16.1 102.97     LegendNANA
08:00 Legend Double Dagger 0.6 -4.8 67 15 15 16.1 102.98     LegendNANA
09:00 Legend Double Dagger 0.6 -4.6 68 13 12 16.1 103.01     Cloudy
10:00 Legend Double Dagger 0.8 -5.5 63 13 9 24.1 103.03     LegendNANA
11:00 Legend Double Dagger 0.8 -5.3 64 16 10 16.1 103.05     LegendNANA
12:00 Legend Double Dagger 0.7 -4.7 67 17 10 24.1 103.04     Cloudy
13:00 Legend Double Dagger 0.8 -5.7 62 19 11 24.1 103.05     LegendNANA
14:00 Legend Double Dagger 0.7 -6.2 60 21 14 24.1 103.08     LegendNANA
15:00 Legend Double Dagger 0.6 -4.8 67 20 12 24.1 103.08     Cloudy
16:00 Legend Double Dagger 0.2 -3.4 77 17 11 24.1 103.08     LegendNANA
17:00 Legend Double Dagger 0.5 -4.5 69 20 11 24.1 103.09     LegendNANA
18:00 Legend Double Dagger 0.4 -4.3 71 20 10 24.1 103.09     Cloudy
19:00 Legend Double Dagger 0.2 -5.0 68 26 6 24.1 103.07     LegendNANA
20:00 Legend Double Dagger 0.3 -5.5 65 20 8 24.1 103.06     LegendNANA
21:00 Legend Double Dagger 0.5 -6.2 61 19 9 24.1 103.04     Cloudy
22:00 Legend Double Dagger 0.3 -5.7 64 22 8 24.1 103.02     LegendNANA
23:00 Legend Double Dagger 0.3 -5.9 63 23 13 24.1 103.01     LegendNANA

Notes on Data Quality.

Legend

  • E = Estimated
  • M = Missing
  • NA = Not Available
  • ‡ = Partner data that is not subject to review by the National Climate Archives
Date modified: